Location: Antioch Baptist Church
(32.6696°N, 85.7327°W)
Time: 20:56:52
(UTC+00:00)

Landsat 5 - Pass Details

Date: 14 July 2020
Orbit: 529 x 654 km, 98.2° (Epoch: 13 August)

Event Time Altitude Azimuth Distance (km) Brightness Sun altitude
Exits shadow 09:30:37 - 171° (S) 2,387 6.3 -14.2°
Reaches altitude 10° 09:31:56 10° 173° (S) 1,836 5.7 -14.0°
Maximum altitude 09:35:52 72° 258° (WSW) 575 3.2 -13.3°
Drops below altitude 10° 09:39:44 10° 343° (NNW) 1,797 6.2 -12.7°
Sets 09:41:50 0° 346° (NNW) 2,682 7.1 -12.3°
